Location: Be?i?
(36.9044°N, 30.1006°E)
Time: 12:28:48
(UTC+00:00)

SeaSat 1 - Pass Details

Date: 05 August 2024
Orbit: 739 x 743 km, 108.0° (Epoch: 08 September)

Event Time Altitude Azimuth Distance (km) Brightness Sun altitude
Exits shadow 23:32:02 22° 325° (NW) 1,588 4.3 -32.7°
Drops below altitude 10° 23:33:46 10° 330° (NNW) 2,258 5.3 -32.6°
Sets 23:36:03 0° 333° (NNW) 3,186 6.2 -32.4°
